Погода в Гавриловке 2-й

Россия / Тамбовская область     52°52′40″N   42°45′41″E
темп.,
°C
ветер,
м/с
пор.,
м/с
влажн.,
%
обл.,
%
осадки,
мм/ч
давл.,
гПа
погр.,
м
14 апреля, ср
ср1400:00+10вюв496373 0.0 1026147
03:00+8вюв486998 0.0 1026112
06:00+7вюв387099 0.0 1025118
09:00+12юв585176 0.0 1024349
12:00+17юв6733100 0.0 10221032
15:00+19юв5727100 0.0 10211613
18:00+16юв3644100 0.0 1020128
21:00+12юв345299 0.0 102061
15 апреля, чт
чт1500:00+10вюв346098 0.0 101955
03:00+8вюв336699 0.0 101938
06:00+7вюв357351 0.0 101868
09:00+14вюв46555 0.0 1017298
12:00+19вюв683984 0.0 10161171
15:00+20ююв573169 0.0 10151990
18:00+18юв344279 0.0 101571
21:00+14ююв115237 0.0 101510
16 апреля, пт
пт1600:00+12в336137 0.0 101524
03:00+10в3372100 0.0 101624
06:00+10в3474100 0.0 101765
09:00+14в5858100 0.0 1017327
12:00+18вюв564395 0.0 1018913
15:00+20в5634100 0.0 10181808
18:00+17в3645100 0.0 1018136
21:00+13всв7127698 0.4 1020350
17 апреля, сб
сб1700:00+10всв6128281 0.1 1021372
03:00+9всв6118199 0.1 1022388
06:00+8всв6128199 0.0 1022376
09:00+10всв8106078 0.0 1023618
12:00+14всв89489 0.0 10231077
15:00+15всв89415 0.0 10231517
18:00+13всв810435 0.0 10231080
21:00+9всв714435 0.0 1025523
18 апреля, вс
вс1800:00+7в6135131 0.0 1026431
03:00+6в5135711 0.0 1027357
06:00+5в5126024 0.0 1028356
09:00+9в794710 0.0 1028748
12:00+13в673798 0.0 10271371
15:00+14в5633100 0.0 10271776
18:00+13в4741100 0.0 1027496
21:00+10всв4105482 0.0 1027321